timestamp,wind_dir_avg,wind_spd_avg,wind_spd_max_dir,wind_spd_gust,battery_voltage,lat,long
2022-12-10 00:04:00+00:00,32.0,8.65,33.0,10.0,12.41,47.59359,-54.27349
2022-12-10 00:14:01+00:00,27.0,7.12,32.0,8.52,12.41,47.59359,-54.27349
2022-12-10 00:24:01+00:00,27.0,7.78,28.0,8.78,12.41,47.59359,-54.27349
2022-12-10 00:34:01+00:00,29.0,8.08,27.0,8.98,12.41,47.59359,-54.27349
2022-12-10 00:44:01+00:00,35.0,9.54,37.0,10.63,12.41,47.59359,-54.27349
2022-12-10 00:54:01+00:00,34.0,9.59,37.0,11.0,12.41,47.59359,-54.27349
2022-12-10 01:04:01+00:00,35.0,9.13,36.0,9.71,12.41,47.59359,-54.27349
2022-12-10 01:14:00+00:00,33.0,9.81,35.0,11.02,12.41,47.59359,-54.27349
2022-12-10 01:24:00+00:00,33.0,9.79,36.0,10.84,12.41,47.59359,-54.27349
2022-12-10 01:34:00+00:00,33.0,8.62,36.0,10.07,12.41,47.59359,-54.27349
2022-12-10 01:44:00+00:00,34.0,9.27,36.0,10.66,12.41,47.59359,-54.27349
2022-12-10 01:54:00+00:00,32.0,9.6,34.0,11.41,12.41,47.59359,-54.27349
2022-12-10 02:04:00+00:00,30.0,9.75,32.0,11.05,12.41,47.59359,-54.27349
2022-12-10 02:14:00+00:00,27.0,9.32,27.0,10.65,12.41,47.59359,-54.27349
2022-12-10 02:24:00+00:00,27.0,8.11,30.0,9.29,12.41,47.59359,-54.27349
2022-12-10 02:34:00+00:00,27.0,8.87,28.0,9.78,12.41,47.59359,-54.27349
2022-12-10 02:44:00+00:00,19.0,8.37,21.0,9.37,12.41,47.59359,-54.27349
2022-12-10 02:54:00+00:00,18.0,9.9,19.0,10.9,12.41,47.59359,-54.27349
2022-12-10 03:04:00+00:00,23.0,9.6,22.0,10.79,12.41,47.59359,-54.27349
2022-12-10 03:14:01+00:00,21.0,8.48,14.0,9.52,12.41,47.59359,-54.27349
2022-12-10 03:24:01+00:00,20.0,8.54,16.0,9.27,12.41,47.59359,-54.27349
2022-12-10 03:34:01+00:00,17.0,8.83,24.0,9.95,12.41,47.59359,-54.27349
2022-12-10 03:44:01+00:00,18.0,8.56,19.0,9.31,12.41,47.59359,-54.27349
2022-12-10 03:54:01+00:00,15.0,9.66,19.0,10.57,12.41,47.59359,-54.27349
2022-12-10 04:04:01+00:00,23.0,9.45,26.0,10.56,12.41,47.59359,-54.27349
2022-12-10 04:14:00+00:00,25.0,8.93,26.0,9.94,12.33,47.59359,-54.27349
2022-12-10 04:24:00+00:00,30.0,8.64,32.0,9.35,12.33,47.59359,-54.27349
2022-12-10 04:34:00+00:00,34.0,8.34,34.0,9.33,12.33,47.59359,-54.27349
2022-12-10 04:44:00+00:00,18.0,8.17,18.0,9.52,12.33,47.59359,-54.27349
2022-12-10 04:54:00+00:00,26.0,8.12,29.0,8.72,12.33,47.59359,-54.27349
2022-12-10 05:04:00+00:00,25.0,8.62,29.0,9.39,12.33,47.59359,-54.27349
2022-12-10 05:14:00+00:00,26.0,8.72,30.0,9.82,12.33,47.59359,-54.27349
2022-12-10 05:24:00+00:00,26.0,8.38,30.0,8.91,12.33,47.59359,-54.27349
2022-12-10 05:34:00+00:00,25.0,8.96,26.0,10.26,12.33,47.59359,-54.27349
2022-12-10 05:44:00+00:00,21.0,8.74,22.0,10.03,12.33,47.59359,-54.27349
2022-12-10 05:54:00+00:00,19.0,9.39,18.0,10.55,12.33,47.59359,-54.27349
2022-12-10 06:04:00+00:00,19.0,8.81,16.0,10.4,12.33,47.59359,-54.27349
2022-12-10 06:14:01+00:00,22.0,9.26,19.0,10.24,12.33,47.59359,-54.27349
2022-12-10 06:24:01+00:00,19.0,7.47,15.0,8.45,12.33,47.59359,-54.27349
2022-12-10 06:34:01+00:00,23.0,7.94,27.0,9.22,12.33,47.59359,-54.27349
2022-12-10 06:44:01+00:00,23.0,8.64,29.0,9.85,12.33,47.59359,-54.27349
2022-12-10 06:54:01+00:00,22.0,9.54,23.0,10.48,12.33,47.59359,-54.27349
2022-12-10 07:04:01+00:00,20.0,8.73,13.0,10.15,12.33,47.59359,-54.27349
2022-12-10 07:14:00+00:00,20.0,9.58,23.0,10.59,12.33,47.59359,-54.27349
2022-12-10 07:24:00+00:00,22.0,8.36,24.0,9.35,12.33,47.59359,-54.27349
2022-12-10 07:34:00+00:00,28.0,8.79,38.0,10.31,12.33,47.59359,-54.27349
2022-12-10 07:44:00+00:00,23.0,8.72,21.0,9.43,12.33,47.59359,-54.27349
2022-12-10 07:54:00+00:00,25.0,8.23,24.0,8.99,12.33,47.59359,-54.27349
2022-12-10 08:04:00+00:00,26.0,8.16,28.0,8.7,12.33,47.59359,-54.27349
2022-12-10 08:14:01+00:00,23.0,8.19,23.0,8.67,12.25,47.59359,-54.27349
2022-12-10 08:24:01+00:00,18.0,8.35,16.0,9.43,12.25,47.59359,-54.27349
2022-12-10 08:34:01+00:00,16.0,8.71,19.0,10.23,12.25,47.59359,-54.27349
2022-12-10 08:44:01+00:00,24.0,10.84,35.0,13.41,12.25,47.59359,-54.27349
2022-12-10 08:54:01+00:00,18.0,9.92,24.0,10.9,12.25,47.59359,-54.27349
2022-12-10 09:04:01+00:00,17.0,9.98,21.0,11.04,12.25,47.59359,-54.27349
2022-12-10 09:14:01+00:00,17.0,9.04,19.0,10.34,12.25,47.59359,-54.27349
2022-12-10 09:24:01+00:00,16.0,8.9,18.0,10.12,12.25,47.59359,-54.27349
2022-12-10 09:34:01+00:00,17.0,9.39,17.0,10.58,12.25,47.59359,-54.27349
2022-12-10 09:44:01+00:00,14.0,9.07,12.0,10.16,12.25,47.59359,-54.27349
2022-12-10 09:54:01+00:00,17.0,9.92,16.0,11.38,12.25,47.59359,-54.27349
2022-12-10 10:04:01+00:00,21.0,9.2,20.0,11.01,12.25,47.59359,-54.27349
2022-12-10 10:14:00+00:00,22.0,9.67,26.0,10.84,12.33,47.59359,-54.27349
2022-12-10 10:24:00+00:00,21.0,8.31,26.0,9.37,12.33,47.59359,-54.27349
2022-12-10 10:34:00+00:00,19.0,9.27,18.0,10.42,12.33,47.59359,-54.27349
2022-12-10 10:44:00+00:00,22.0,9.73,19.0,10.86,12.33,47.59359,-54.27349
2022-12-10 10:54:00+00:00,22.0,9.16,25.0,11.02,12.33,47.59359,-54.27349
2022-12-10 11:04:00+00:00,19.0,10.51,16.0,11.71,12.33,47.59359,-54.27349
2022-12-10 11:14:00+00:00,15.0,10.05,14.0,11.37,12.25,47.59359,-54.27349
2022-12-10 11:24:00+00:00,17.0,10.42,16.0,11.78,12.25,47.59359,-54.27349
2022-12-10 11:34:00+00:00,15.0,9.94,16.0,11.61,12.25,47.59359,-54.27349
2022-12-10 11:44:00+00:00,12.0,10.11,14.0,11.64,12.25,47.59359,-54.27349
2022-12-10 11:54:00+00:00,16.0,10.61,16.0,11.56,12.25,47.59359,-54.27349
2022-12-10 12:04:00+00:00,21.0,10.52,31.0,12.1,12.25,47.59359,-54.27349
2022-12-10 12:14:00+00:00,18.0,9.42,23.0,11.97,12.41,47.59359,-54.27349
2022-12-10 12:24:00+00:00,20.0,9.54,19.0,11.62,12.41,47.59359,-54.27349
2022-12-10 12:34:00+00:00,23.0,10.02,25.0,11.81,12.41,47.59359,-54.27349
2022-12-10 12:44:00+00:00,19.0,10.48,29.0,11.96,12.41,47.59359,-54.27349
2022-12-10 12:54:00+00:00,22.0,10.07,31.0,11.92,12.41,47.59359,-54.27349
2022-12-10 13:04:00+00:00,19.0,8.84,17.0,10.17,12.41,47.59359,-54.27349
2022-12-10 13:14:00+00:00,16.0,10.24,16.0,11.24,14.32,47.59359,-54.27349
2022-12-10 13:24:00+00:00,15.0,9.58,14.0,10.76,14.32,47.59359,-54.27349
2022-12-10 13:34:00+00:00,20.0,9.12,18.0,10.4,14.32,47.59359,-54.27349
2022-12-10 13:44:00+00:00,18.0,9.72,18.0,10.8,14.32,47.59359,-54.27349
2022-12-10 13:54:00+00:00,16.0,8.94,22.0,11.06,14.32,47.59359,-54.27349
2022-12-10 14:04:00+00:00,18.0,9.44,17.0,10.59,14.32,47.59359,-54.27349
2022-12-10 14:14:01+00:00,14.0,8.75,15.0,10.37,13.6,47.59359,-54.27349
2022-12-10 14:24:01+00:00,18.0,8.27,26.0,9.37,13.6,47.59359,-54.27349
2022-12-10 14:34:01+00:00,24.0,8.58,26.0,9.65,13.6,47.59359,-54.27349
2022-12-10 14:44:01+00:00,32.0,10.21,36.0,11.65,13.6,47.59359,-54.27349
2022-12-10 14:54:01+00:00,32.0,10.09,33.0,11.52,13.6,47.59359,-54.27349
2022-12-10 15:04:01+00:00,30.0,9.71,32.0,10.99,13.6,47.59359,-54.27349
2022-12-10 15:14:01+00:00,24.0,9.02,21.0,10.59,13.84,47.59359,-54.27349
2022-12-10 15:24:01+00:00,27.0,10.18,35.0,12.13,13.84,47.59359,-54.27349
2022-12-10 15:34:01+00:00,25.0,9.62,33.0,11.33,13.84,47.59359,-54.27349
2022-12-10 15:44:01+00:00,24.0,10.11,29.0,11.15,13.84,47.59359,-54.27349
2022-12-10 15:54:01+00:00,28.0,10.6,35.0,12.26,13.84,47.59359,-54.27349
2022-12-10 16:04:01+00:00,25.0,10.19,32.0,11.85,13.84,47.59359,-54.27349
2022-12-10 16:14:00+00:00,31.0,9.56,34.0,11.23,13.68,47.59359,-54.27349
2022-12-10 16:24:00+00:00,36.0,10.24,34.0,11.64,13.68,47.59359,-54.27349
2022-12-10 16:34:00+00:00,15.0,9.25,16.0,10.54,13.68,47.59359,-54.27349
2022-12-10 16:44:00+00:00,38.0,10.51,37.0,11.8,13.68,47.59359,-54.27349
2022-12-10 16:54:00+00:00,28.0,9.97,32.0,10.88,13.68,47.59359,-54.27349
2022-12-10 17:04:00+00:00,25.0,8.54,22.0,9.97,13.68,47.59359,-54.27349
2022-12-10 17:14:01+00:00,29.0,9.49,27.0,10.66,13.6,47.59359,-54.27349
2022-12-10 17:24:01+00:00,44.0,9.28,50.0,10.38,13.6,47.59359,-54.27349
2022-12-10 17:34:01+00:00,40.0,9.39,44.0,11.46,13.6,47.59359,-54.27349
2022-12-10 17:44:01+00:00,38.0,9.16,45.0,10.28,13.6,47.59359,-54.27349
2022-12-10 17:54:01+00:00,34.0,10.01,36.0,12.46,13.6,47.59359,-54.27349
2022-12-10 18:04:01+00:00,40.0,10.11,39.0,11.19,13.6,47.59359,-54.27349
2022-12-10 18:14:00+00:00,41.0,9.51,48.0,10.82,13.6,47.59359,-54.27349
2022-12-10 18:24:00+00:00,44.0,8.8,47.0,10.4,13.6,47.59359,-54.27349
2022-12-10 18:34:00+00:00,42.0,8.16,47.0,9.82,13.6,47.59359,-54.27349
2022-12-10 18:44:00+00:00,34.0,8.74,41.0,10.31,13.6,47.59359,-54.27349
2022-12-10 18:54:00+00:00,32.0,9.83,38.0,11.36,13.6,47.59359,-54.27349
2022-12-10 19:04:00+00:00,31.0,8.75,46.0,9.64,13.6,47.59359,-54.27349
2022-12-10 19:14:00+00:00,24.0,10.02,25.0,11.35,13.13,47.59359,-54.27349
2022-12-10 19:24:00+00:00,26.0,9.97,27.0,10.5,13.13,47.59359,-54.27349
2022-12-10 19:34:00+00:00,22.0,8.22,23.0,9.58,13.13,47.59359,-54.27349
2022-12-10 19:44:00+00:00,22.0,9.45,16.0,11.19,13.13,47.59359,-54.27349
2022-12-10 19:54:00+00:00,27.0,9.93,43.0,12.37,13.13,47.59359,-54.27349
2022-12-10 20:04:00+00:00,28.0,11.04,38.0,13.55,13.13,47.59359,-54.27349
2022-12-10 20:14:01+00:00,30.0,11.52,42.0,14.27,12.57,47.59359,-54.27349
2022-12-10 20:24:01+00:00,22.0,10.52,34.0,12.71,12.57,47.59359,-54.27349
2022-12-10 20:34:01+00:00,27.0,10.47,44.0,13.43,12.57,47.59359,-54.27349
2022-12-10 20:44:01+00:00,28.0,9.09,48.0,11.85,12.57,47.59359,-54.27349
2022-12-10 20:54:01+00:00,36.0,9.79,46.0,12.72,12.57,47.59359,-54.27349
2022-12-10 21:04:01+00:00,20.0,9.59,38.0,11.58,12.57,47.59359,-54.27349
2022-12-10 21:14:00+00:00,26.0,8.79,43.0,11.03,12.49,47.59359,-54.27349
2022-12-10 21:24:00+00:00,16.0,9.59,17.0,11.02,12.49,47.59359,-54.27349
2022-12-10 21:34:00+00:00,21.0,9.7,34.0,11.62,12.49,47.59359,-54.27349
2022-12-10 21:44:00+00:00,3.0,8.42,4.0,9.55,12.49,47.59359,-54.27349
2022-12-10 21:54:00+00:00,2.0,8.24,5.0,9.44,12.49,47.59359,-54.27349
2022-12-10 22:04:00+00:00,14.0,8.6,15.0,10.66,12.49,47.59359,-54.27349
2022-12-10 22:14:01+00:00,3.0,8.22,5.0,10.16,12.41,47.59359,-54.27349
2022-12-10 22:24:01+00:00,4.0,8.01,4.0,9.15,12.41,47.59359,-54.27349
2022-12-10 22:34:01+00:00,4.0,9.14,358.0,10.3,12.41,47.59359,-54.27349
2022-12-10 22:44:01+00:00,41.0,11.59,44.0,13.12,12.41,47.59359,-54.27349
2022-12-10 22:54:01+00:00,32.0,10.59,45.0,13.69,12.41,47.59359,-54.27349
2022-12-10 23:04:01+00:00,17.0,8.77,18.0,9.97,12.41,47.59359,-54.27349
2022-12-10 23:14:00+00:00,37.0,11.74,42.0,13.37,12.41,47.59359,-54.27349
2022-12-10 23:24:00+00:00,38.0,10.85,46.0,13.17,12.41,47.59359,-54.27349
2022-12-10 23:34:00+00:00,24.0,9.64,45.0,12.59,12.41,47.59359,-54.27349
2022-12-10 23:44:00+00:00,13.0,8.8,21.0,10.2,12.41,47.59359,-54.27349
2022-12-10 23:54:00+00:00,4.0,8.79,15.0,10.38,12.41,47.59359,-54.27349
